Regional Weather Roundup
Issued by NWS Charleston, SC

Home | Current Version | Previous Version | Text Only | Print | Product List | Glossary On
Versions: 1 2 3 4 5 6 7 8 9 10 11 12 13 14 15 16 17 18 19 20 21 22 23 24 25 26 27 28 29 30 31 32 33 34 35 36 37 38 39 40 41 42 43 44 45 46 47 48 49 50
000
ASUS42 KCHS 211610
RWRCHS
REGIONAL WEATHER ROUNDUP
NATIONAL WEATHER SERVICE CHARLESTON SC
1200 PM EDT MON APR 21 2014

NOTE: "FAIR" INDICATES FEW OR NO CLOUDS BELOW 12,000 FEET WITH NO
SIGNIFICANT WEATHER AND/OR OBSTRUCTIONS TO VISIBILITY.

NOT ALL STATIONS ARE QUALITY CONTROLLED BY THE NATIONAL
WEATHER SERVICE. USE DATA WITH CAUTION...ESPECIALLY
DEWPOINT OBSERVATIONS.

SCZ027-030-031-034>040-042>050-211700-
...SOUTH CAROLINA...

CITY           SKY/WX    TMP DP  RH WIND       PRES   REMARKS
N CHARLESTON   SUNNY     71  50  47 N14G21    30.08F
WATERFRONT PRK NOT AVBL
FORT JOHNSON   NOT AVBL
MOUNT PLEASANT FAIR     N/A N/A N/A N9        30.06F
JOHNS ISLAND   SUNNY     70  54  56 N10       30.07F
PINOPOLIS        N/A     63  52  67 VRB8      30.02F
MONCKS CORNER  FAIR      66  55  68 N7        30.10F
SUMMERVILLE    NOT AVBL
BEAUFORT MCAS  MOSUNNY   71  51  49 NE10      30.09F
BEAUFORT ARPT  FAIR      70  54  56 N10G17    30.09F
HILTON HEAD IS SUNNY     68  54  60 N14       30.11F
GEORGETOWN     NOT AVBL
WALTERBORO     SUNNY     68  50  52 N7        30.11F
ORANGEBURG     SUNNY     66  43  43 N7        30.13F
BARNWELL       FAIR      68  43  40 N6        30.14F
AIKEN          FAIR      66  43  42 N8        30.16F
MANNING        FAIR      66  52  59 N8        30.11F
KINGSTREE      NOT AVBL
COLUMBIA       MOSUNNY   67  38  34 N6        30.13F
SUMTER         SUNNY     65  47  52 N8        30.11F
FLORENCE       SUNNY     66  49  54 N13       30.11F
MYRTLE BEACH   SUNNY     66  54  63 N17       30.06F
N MYRTLE BEACH SUNNY     68  54  60 N14G21    30.05F

$$

GAZ063-065-086>088-099>101-113>116-118-119-134-136>141-150-211700-
...GEORGIA...

CITY           SKY/WX    TMP DP  RH WIND       PRES   REMARKS
SAVANNAH ARPT  MOSUNNY   73  53  49 N9        30.10F
HUNTER AAF     MOSUNNY   71  55  55 VRB6      30.08F
FORT STEWART   SUNNY     71  58  64 N5        30.09F
STATESBORO     NOT AVBL
SYLVANIA       SUNNY     70  49  48 N7        30.13F
CLAXTON        FAIR      70  55  60 N3        30.13S
THOMSON        SUNNY     65  45  48 NE5       30.20F
AUGUSTA-BUSH   SUNNY     69  35  28 N7        30.14F
AUGUSTA-DANIEL SUNNY     68  36  30 N6        30.15F
SWAINSBORO     FAIR      68  46  45 N8        30.14F
VIDALIA        SUNNY     70  52  52 NE5       30.13F
ALMA           SUNNY     70  53  54 N3        30.12F
WAYCROSS       NOT AVBL
JESUP          FAIR      68  57  68 NE8       30.11F
BRUNSWICK      SUNNY     70  57  64 NE3       30.11F
SAINT SIMONS   SUNNY     70  55  59 N8        30.10F

$$

SCZ027-028-034-036>038-045-046-048>050-GAZ119-141-211700-
...LAKE AND SUPPLEMENTAL COASTAL OBSERVATIONS...

STATION/POSITION TIME  TEMP    WIND        PRES    WAVE   SWELL
                       AIR SEA DIR/SP/G            HT/PER HT/PER/DIR
                 (UTC) (F)     (DEG/KT/KT) (MB)    (FT/S) (FT/S/D)
UPR LAKE MARION  NOT AVBL
WINYAH BAY       1500   63     360/  8     1018.0S
LAKE MURRAY      1500   62      30/  1/  3 1020.7F
ACE BASIN NERRS  1500   66      10/  5     1019.0S
FORT PULASKI     1600   67 58  360/  8/ 12 1019.3F
SAPELO ISLAND    1500   66      10/ 11     1020.0S

$$

ANZ835-935-AMZ111-154-330-350-352-354-374-450-454-472-211700-
...C-MAN AND BUOY OBSERVATIONS...

STATION/POSITION TIME  TEMP    WIND        PRES    WAVE   SWELL
                       AIR SEA DIR/SP/G            HT/PER HT/PER/DIR
                 (UTC) (F)     (DEG/KT/KT) (MB)    (FT/S) (FT/S/D)
FOLLY BEACH CMAN 1500   65     340/  9/ 13 1019.1S
BUOY 41004       NOT AVBL
BUOY 41008       1600   61 63   10/ 14/ 16 1018.9F   5/13   3/ 60/13
5E ST. MARYS GA  1600      64                N/A     5/ 6   2/ 80/12
FRYING PAN BUOY  1600   59 68   10/ 21/ 25 1015.8R   9/ 6   3/100/10
BUOY 41025       1600   55 74  360/ 27/ 33 1014.3S  11/10   8/ 60/10
CAPE LOOKOUT NC  1500   56      10/ 20/ 23 1016.3R
BUOY 41002       NOT AVBL
BUOY 41010       1600   70 74  330/ 19/ 21 1014.8R  10/11   8/ 20/11
BUOY 41012       NOT AVBL
ST AUGUSTINE FL  1600   62     360/ 14/ 16 1019.8S
CAPERS NEARSHORE NOT AVBL
FRIPP NEARSHORE  1500   63      10/ 14/ 16   N/A


$$


USA.gov is the U.S. government's official web portal to all federal, state and local government web resources and services.